This demonstration page uses our WeatherBlox Daily Observations layout. Learn more.

41.86663, -103.66717

Hourly Observations for June 18, 2019

Temp ( °F °C ) Dew Point ( °F °C ) Humidity (%) Winds ( mph kmh ) Pressure ( in mb ) Visibility ( mi km ) Precip ( " mm )
12:53 am 00:53 Partly Cloudy 57 14 N/A N/A NE 3 6 29.98 1015 10 16.0934 0 0
1:53 am 01:53 Clear 55 12.8 55 12.8 100 100 NNW 3 6 29.95 1014 10 16.0934 0 0
2:53 am 02:53 Clear 55 12.8 55 12.8 100 100 Calm 29.95 1014 10 16.0934 0 0
3:35 am 03:35 Partly Cloudy with Mist and Fog 54 12.2 54 12.2 100 100 SSW 5 7 29.98 1015 2 3.21868 0 0
3:37 am 03:37 Mostly Cloudy with Mist and Fog 54 12 54 12 100 100 SSW 3 6 29.99 1015 1 1.60934 0 0
3:45 am 03:45 Mostly Cloudy with Mist and Fog 55 12.8 55 12.8 100 100 Calm 29.98 1015 0.75 1.207005 0 0
3:50 am 03:50 Mostly Cloudy with Mist and Fog 55 13 55 13 100 100 Calm 29.98 1015 2.5 4.02335 0 0
3:53 am 03:53 Cloudy with Mist and Fog 55 12.8 55 12.8 100 100 Calm 29.96 1015 3 4.82802 0 0
4:07 am 04:07 Cloudy with Mist and Fog 56 13.3 56 13.3 100 100 NNW 3 6 29.98 1015 1.5 2.41401 0 0
4:13 am 04:13 Cloudy with Fog 56 13.3 56 13.3 100 100 Calm 29.98 1015 0.25 0.402335 0 0
4:28 am 04:28 Cloudy with Fog 55 13 55 13 100 100 NNE 3 6 29.98 1015 0.5 0.80467 0 0
4:40 am 04:40 Cloudy with Mist and Fog 55 12.8 55 12.8 100 100 Calm 29.98 1015 1 1.60934 0 0
4:47 am 04:47 Cloudy with Fog 55 13 55 13 100 100 Calm 29.98 1015 0.25 0.402335 0 0
4:48 am 04:48 Cloudy with Fog 55 12.8 55 12.8 100 100 Calm 29.97 1015 0.25 0.402335 0 0
4:58 am 04:58 Cloudy with Fog 55 12.8 55 12.8 100 100 NE 5 7 29.98 1015 0.5 0.80467 0 0
5:02 am 05:02 Cloudy with Mist and Fog 55 12.8 55 12.8 100 100 NE 5 7 29.98 1015 2.5 4.02335 0 0
5:09 am 05:09 Cloudy 55 12.8 55 12.8 100 100 NE 5 7 29.98 1015 10 16.0934 0 0
5:28 am 05:28 Cloudy 55 12.8 55 12.8 100 100 NE 3 6 29.98 1015 9 14.48406 0 0
5:53 am 05:53 Cloudy 56 13.3 56 13.3 100 100 NNE 5 7 29.98 1015 9 14.48406 0 0
6:30 am 06:30 Partly Cloudy 57 14 N/A N/A Calm 29.97 1015 9 14.48406 0 0
6:53 am 06:53 Partly Cloudy 59 15 N/A N/A Calm 29.98 1015 10 16.0934 0 0
7:00 am 07:00 Mostly Cloudy 61 16 N/A N/A Calm 29.94 1014 10 16.0934 0 0
7:53 am 07:53 Mostly Cloudy 61 16.1 58 14.4 90 90 E 3 6 29.98 1015 10 16.0934 0 0
8:53 am 08:53 Cloudy 62 16.7 60 15.6 93 93 ENE 6 9 29.98 1015 10 16.0934 0 0
9:13 am 09:13 Cloudy 63 17.2 59 15 87 87 ESE 5 7 29.92 1013 10 16.0934 0 0
9:21 am 09:21 Cloudy 63 17 59 15 88 88 E 6 9 29.92 1013 10 16.0934 0 0
9:35 am 09:35 Cloudy 63 17.2 60 15.6 90 90 SSE 6 9 29.92 1013 10 16.0934 0 0
9:46 am 09:46 Cloudy 63 17 61 16 94 94 SSE 8 13 29.92 1013 10 16.0934 0 0
9:53 am 09:53 Cloudy 63 17.2 60 15.6 90 90 S 8 13 29.98 1015 10 16.0934 0 0
10:03 am 10:03 Cloudy 64 17.8 59 15 84 84 SE 6 9 29.91 1013 10 16.0934 0 0
10:33 am 10:33 Cloudy 64 17.8 59 15 84 84 SE 7 11 29.9 1013 10 16.0934 0 0
10:53 am 10:53 Cloudy 66 18.9 60 15.6 81 81 VRB 7 11 29.96 1015 10 16.0934 0 0
11:06 am 11:06 Cloudy 65 18.3 59 15 81 81 VRB 7 11 29.9 1012 10 16.0934 0 0
11:53 am 11:53 Partly Cloudy 68 20 59 15 73 73 SSE 6 9 29.95 1014 10 16.0934 0 0
12:53 pm 12:53 Partly Cloudy 69 20.6 58 14.4 68 68 SSE 9 15 29.92 1013 10 16.0934 0 0
1:53 pm 13:53 Mostly Cloudy 71 21.7 60 15.6 68 68 VRB 6 9 29.89 1012 10 16.0934 0 0
2:53 pm 14:53 Mostly Sunny 71 21.7 60 15.6 68 68 SE 8 13 29.88 1012 10 16.0934 0 0
3:53 pm 15:53 Mostly Cloudy 69 20.6 59 15 70 70 S 7 11 29.88 1012 10 16.0934 0 0
4:45 pm 16:45 Cloudy with Light Rain 61 16.1 55 12.8 81 81 N 18 30 29.86 1011 10 16.0934 0 0.0254
4:53 pm 16:53 Cloudy with Nearby Thunderstorms 61 16.1 56 13.3 84 84 NNE 16 26 29.91 1013 10 16.0934 0 0.0254
5:12 pm 17:12 Cloudy 61 16 55 13 83 83 NNE 23 37 29.84 1010 10 16.0934 0 0
5:53 pm 17:53 Cloudy with Light Rain 60 15.6 59 15 96 96 NNE 12 19 29.91 1013 10 16.0934 0.01 0.254
6:53 pm 18:53 Partly Cloudy 62 16.7 59 15 90 90 ESE 14 22 29.88 1012 10 16.0934 0 0.0254
7:53 pm 19:53 Sunny 59 15 57 13.9 93 93 S 6 9 29.88 1012 10 16.0934 0 0
8:53 pm 20:53 Partly Cloudy 58 14.4 56 13.3 93 93 SSE 3 6 29.88 1012 10 16.0934 0 0
9:53 pm 21:53 Clear 56 13.3 56 13.3 100 100 ESE 3 6 29.88 1012 10 16.0934 0 0
10:53 pm 22:53 Clear 55 13 N/A N/A E 6 9 29.87 1012 10 16.0934 0 0
11:37 pm 23:37 Partly Cloudy with Mist and Fog 54 12 N/A N/A ENE 6 9 29.88 1012 2 3.21868 0 0
11:39 pm 23:39 Mostly Cloudy with Mist and Fog 54 12 N/A N/A ENE 6 9 29.88 1012 1 1.60934 0 0
11:45 pm 23:45 Mostly Cloudy with Fog 55 12.8 55 12.8 100 100 ENE 5 7 29.87 1012 0.25 0.402335 0 0
11:53 pm 23:53 Mostly Cloudy with Fog 55 12.8 55 12.8 100 100 Calm 29.86 1011 0.25 0.402335 0 0

Powered by AerisWeather